STARLINK-5654, 55366

Orbit data source: Space-Track

STARLINK-5654, 55366 is a payload satellite owned by SpaceX/Seattle (US) in LEO that was launched on Thu, 26 Jan 2023 UTC via an FALCON 9 launch vehicle from the Air Force Eastern Test Range (AFETR). Payload-class satellites include a variety of spacecraft equipped with specific instruments for various scientific and technological missions. These include communications satellites like Starlink; space stations such as the ISS; scientific satellites like the Hubble; Earth observation satellites from companies like Planet Labs, Umbra, and HawkEye 360; GPS; miniature CubeSats for education and research; and military/defense satellites.

Loading next visibility...
Identifier
55366, 2023-013AM
Orbit
LEO
Country
Flag of USUS
Related business
Manufacturer
SpaceX/Seattle
Mission
Operational Commercial Communications
Bus & Motor
STARLINK, Unknown motor
Mass
305 kg wet, ~290 kg dry
Launch date (UTC)
2023-01-26 (3 years ago)
Launch vehicle
FALCON 9
Launch site
Air Force Eastern Test Range (AFETR)
Object type
Payload
Rocket body
Debris
Shape & HBR
Box + 1 Pan, 10.1 m
Radar Cross Section
13.562 m², Large (>1 m²)

Expand to show TLE details & history
Last TLE update: 21 hours ago

TLE from 21 hours ago
0 STARLINK-5654
1 55366U 23013AM  25348.82506239  .00001952  00000-0  15956-3 0  9997
2 55366  43.0045  28.4436 0001156 267.8215  92.2495 15.02525994159091
Epoch: 2025-12-14T19:48Z
TLE epoch observation values (Epoch: 2025-12-14T19:48:05.390Z)
Latitude
-0.00002°
Longitude
7.6887°
Altitude
558.92 km
Speed
7.584 km/s
True Right ascension
01h 53m 46s
True Declination
0° 00' 00"
Sunlit
Object was in full shadow at epoch
Visualization orbit readout
Latitude
Unknown
Longitude
Unknown
Altitude
Unknown
Speed
Unknown
Apparent Right ascension
Unknown
Apparent Declination
Unknown
Sunlit
N/A
Visualization observer readout
Local Sidereal Time
15:11:09
Azimuth
Unknown
Elevation
Unknown
Doppler factor
Unknown
Orbital elements
Apogee altitude
561.836 km
Perigee altitude
560.231 km
Semi-major axis
6,939.171 km
Eccentricity
0.00012
Inclination
43.0045°
RAAN
28.4436°
Arg. of periapsis
267.8215°
True anomaly
92.26274°
Mean anomaly
92.2495°
Eccentric anomaly
92.25612°
Mean motion
3.75476 °/min
Orbital period
95.88 mins
BSTAR
0.00015956
Loading maneuver chart data...
Computing Atmospheric mass density...
Loading historical data...
Loading historical data...
Loading historical data...
Loading historical data...
Loading historical data...
Loading historical data...
Loading historical data...

Documentation

Showing up to 5 results
|